Simultaneous Nadir Overpasses (SNOs) Predictions

Prediction of SNOs between METOP-A and TERRA Satellite Orbit:

Table of predicted SNOs for the next 14.0 days since TLE Epoch: 7/18/2015
Index Date (METOP-A) Time (METOP-A) Lat,Lon (METOP-A) SZA (METOP-A ) Date (TERRA) Time (TERRA) Lat,Lon (TERRA) SZA (TERRA ) Distance(km) Time Diff (sec)
1 07/20/2015 13:47:31 -81.34,-159.16 116.54 07/20/2015 13:48:25 -81.34,-159.07 116.50 1.67 54
2 07/20/2015 14:38:10 81.35, 8.80 63.55 07/20/2015 14:37:51 81.34, 8.68 63.52 2.21 19
3 07/23/2015 09:21:53 -81.35, -92.66 115.98 07/23/2015 09:22:40 -81.34, -92.59 115.95 1.33 47
4 07/23/2015 10:12:32 81.35, 75.26 64.10 07/23/2015 10:12:06 81.34, 75.12 64.07 2.43 26
5 07/26/2015 04:56:14 -81.35, -25.81 115.34 07/26/2015 04:56:54 -81.36, -25.83 115.32 0.80 40
6 07/
